Location: Unspecified
(33.9239°N, 118.0544°W)
Time: 01:32:42
(UTC-07:00)

Cosmos 2058 - Visible Passes

Search period start: 28 May 2017 00:00
Search period end: 07 June 2017 00:00
Orbit: 563 x 585 km, 82.5° (Epoch: 27 May)

Date Brightness Start Highest point End Pass type
(mag) Time Alt. Az. Time Alt. Az. Time Alt. Az.
28 May 5.0 02:08:23 24° NE 02:08:23 24° NE 02:10:23 10° NNE visible
28 May 5.2 03:44:37 12° WNW 03:44:37 12° WNW 03:45:28 10° NW visible
29 May 4.9 02:11:50 27° NNE 02:11:50 27° NNE 02:13:55 10° NNE visible
30 May 4.7 02:15:16 29° NNE 02:15:16 29° NNE 02:17:22 10° N visible
31 May 4.7 02:18:41 28° N 02:18:41 28° N 02:20:45 10° N visible
01 Jun 4.8 02:22:06 26° NNW 02:22:06 26° NNW 02:24:03 10° N visible
02 Jun 4.9 02:25:29 23° NNW 02:25:29 23° NNW 02:27:17 10° N visible
03 Jun 5.9 00:52:39 10° NE 00:52:39 10° NE 00:52:40 10° NE visible
03 Jun 5.1 02:28:52 19° NNW 02:28:52 19° NNW 02:30:25 10° NNW visible
04 Jun 5.8 00:56:01 13° NE 00:56:01 13° NE 00:56:36 10° NE visible
04 Jun 5.3 02:32:14 15° NW 02:32:14 15° NW 02:33:25 10° NNW visible
05 Jun 5.6 00:59:22 15° NE 00:59:22 15° NE 01:00:20 10° NNE visible
05 Jun 5.5 02:35:36 12° NW 02:35:36 12° NW 02:36:15 10° NW visible
06 Jun 5.5 01:02:43 18° NNE 01:02:43 18° NNE 01:03:56 10° NNE visible
